Other Surface Observations
Issued by NWS Missoula, MT

Home | Current Version | Previous Version | Text Only | Print | Product List | Glossary On
Versions: 1 2 3 4 5 6 7 8 9 10 11 12 13 14 15 16 17 18 19 20 21 22 23 24 25 26 27 28 29 30 31 32 33 34 35 36 37 38 39 40 41 42 43 44 45 46 47 48 49 50
000
SXUS55 KMSO 222343
OSOMSO
MONTANA AWOS SUMMARY
NATIONAL WEATHER SERVICE MISSOULA MT
443 PM MST MON DEC 22 2014

Montana AWOS Reports

LAUREL      |K6S8 222335Z AUTO 29014G21KT 40SM 03/M09 A2992 RMK AO1 T00331093
ROUNDUP     |KRPX 222335Z AUTO 28011KT 40SM 02/M08 A2984 RMK AO1 T00171077
MALTA       |KM75 222255Z AUTO 30011G19KT 40SM 03/M03 A2986 RMK AO1 T00281027




USA.gov is the U.S. government's official web portal to all federal, state and local government web resources and services.